CPA809 SAEZ-SBGR

Flight info

Callsign CPA809
Flight time N/A
Altitude 41000
Route DORVO1E DORVO UN857 OGRUN UZ121 BUXUK
Aircraft B772/H-SDE2E3FGHIJ5LORVWXY/LB1D1

Departure

Time 2026-04-27 00:03
Airport Ezeiza International Airport - Ministro Pistarini (SAEZ)

Arrival

Time N/A
Airport São Paulo/Guarulhos–Governor André Franco Montoro International Airport (SBGR)
Time Latitude Longitude Altitude Speed Heading
2026-04-26 23:02 -34.81558 -58.53927 92 ft 0 kts 320°
2026-04-26 23:49 -34.81567 -58.53919 92 ft 2 kts 321°
2026-04-26 23:49 -34.81578 -58.53907 92 ft 2 kts 320°
2026-04-26 23:49 -34.81589 -58.53895 92 ft 2 kts 320°
2026-04-26 23:49 -34.81601 -58.53883 92 ft 2 kts 321°
2026-04-26 23:50 -34.81613 -58.53871 92 ft 2 kts 320°
2026-04-26 23:50 -34.81624 -58.53860 92 ft 2 kts 320°
2026-04-26 23:50 -34.81632 -58.53852 92 ft 2 kts 319°
2026-04-26 23:50 -34.81641 -58.53839 92 ft 2 kts 294°
2026-04-26 23:51 -34.81644 -58.53822 91 ft 2 kts 271°
2026-04-26 23:51 -34.81643 -58.53804 91 ft 2 kts 249°
2026-04-26 23:51 -34.81640 -58.53797 91 ft 1 kts 243°
2026-04-26 23:51 -34.81639 -58.53796 91 ft 0 kts 243°
2026-04-26 23:54 -34.81643 -58.53800 91 ft 1 kts 225°
2026-04-26 23:55 -34.81675 -58.53824 91 ft 9 kts 215°
2026-04-26 23:55 -34.81727 -58.53897 89 ft 10 kts 239°
2026-04-26 23:55 -34.81751 -58.53945 88 ft 1 kts 240°
2026-04-26 23:55 -34.81751 -58.53961 88 ft 2 kts 302°
2026-04-26 23:56 -34.81740 -58.53963 88 ft 1 kts 23°
2026-04-26 23:56 -34.81728 -58.53925 89 ft 8 kts 76°
2026-04-26 23:56 -34.81702 -58.53839 90 ft 9 kts 80°
2026-04-26 23:56 -34.81721 -58.53753 89 ft 11 kts 130°
2026-04-26 23:57 -34.81803 -58.53688 86 ft 16 kts 155°
2026-04-26 23:57 -34.81874 -58.53643 83 ft 11 kts 144°
2026-04-26 23:57 -34.81921 -58.53542 80 ft 16 kts 104°
2026-04-26 23:57 -34.81949 -58.53398 79 ft 17 kts 104°
2026-04-26 23:58 -34.81975 -58.53273 78 ft 16 kts 104°
2026-04-26 23:58 -34.82003 -58.53131 77 ft 18 kts 103°
2026-04-26 23:58 -34.82030 -58.52994 75 ft 16 kts 104°
2026-04-26 23:58 -34.82060 -58.52846 75 ft 19 kts 104°
2026-04-26 23:59 -34.82093 -58.52681 73 ft 19 kts 104°
2026-04-26 23:59 -34.82124 -58.52530 74 ft 14 kts 104°
2026-04-26 23:59 -34.82148 -58.52408 74 ft 14 kts 104°
2026-04-26 23:59 -34.82173 -58.52279 75 ft 16 kts 104°
2026-04-27 00:00 -34.82201 -58.52140 75 ft 10 kts 103°
2026-04-27 00:00 -34.82217 -58.52056 75 ft 12 kts 104°
2026-04-27 00:00 -34.82240 -58.51943 74 ft 15 kts 104°
2026-04-27 00:00 -34.82257 -58.51857 72 ft 8 kts 103°
2026-04-27 00:01 -34.82271 -58.51804 71 ft 6 kts 122°
2026-04-27 00:01 -34.82323 -58.51783 70 ft 9 kts 184°
2026-04-27 00:01 -34.82396 -58.51799 71 ft 11 kts 193°
2026-04-27 00:01 -34.82470 -58.51820 71 ft 7 kts 194°
2026-04-27 00:02 -34.82519 -58.51855 72 ft 8 kts 244°
2026-04-27 00:02 -34.82521 -58.51914 73 ft 3 kts 282°
2026-04-27 00:02 -34.82520 -58.51916 73 ft 0 kts 282°
2026-04-27 00:02 -34.82499 -58.52042 75 ft 47 kts 282°
2026-04-27 00:03 -34.82373 -58.52738 78 ft 119 kts 282°
2026-04-27 00:03 -34.82172 -58.53878 399 ft 146 kts 279°
2026-04-27 00:03 -34.81938 -58.55060 1163 ft 148 kts 277°
2026-04-27 00:03 -34.81708 -58.56284 1894 ft 158 kts 274°
2026-04-27 00:04 -34.81474 -58.57610 2399 ft 166 kts 273°
2026-04-27 00:04 -34.81223 -58.59072 2669 ft 187 kts 273°
2026-04-27 00:04 -34.81041 -58.60694 2959 ft 200 kts 259°
2026-04-27 00:04 -34.81573 -58.62284 3148 ft 215 kts 230°
2026-04-27 00:05 -34.82594 -58.63619 3922 ft 214 kts 227°
2026-04-27 00:05 -34.83622 -58.64932 4609 ft 217 kts 226°
2026-04-27 00:05 -34.84667 -58.66268 5209 ft 221 kts 225°
2026-04-27 00:05 -34.85724 -58.67619 5814 ft 225 kts 225°
2026-04-27 00:06 -34.86811 -58.69008 5979 ft 227 kts 225°
2026-04-27 00:06 -34.88095 -58.70107 5979 ft 225 kts 202°
2026-04-27 00:06 -34.89599 -58.70655 5981 ft 227 kts 197°
2026-04-27 00:06 -34.91150 -58.70583 5974 ft 233 kts 167°
2026-04-27 00:07 -34.92599 -58.69532 5988 ft 249 kts 151°
2026-04-27 00:07 -34.93899 -58.68116 5979 ft 254 kts 144°
2026-04-27 00:07 -34.95113 -58.66500 5982 ft 263 kts 139°
2026-04-27 00:07 -34.96226 -58.64683 5965 ft 269 kts 133°
2026-04-27 00:08 -34.97163 -58.62723 5971 ft 272 kts 127°
2026-04-27 00:08 -34.97931 -58.60597 5987 ft 274 kts 120°
2026-04-27 00:08 -34.98500 -58.58362 5961 ft 282 kts 113°
2026-04-27 00:08 -34.98838 -58.55957 5952 ft 293 kts 99°
2026-04-27 00:09 -34.98402 -58.53434 6026 ft 317 kts 70°
2026-04-27 00:09 -34.97443 -58.51064 6863 ft 312 kts 68°
2026-04-27 00:09 -34.96454 -58.48716 7538 ft 313 kts 67°
2026-04-27 00:09 -34.95457 -58.46355 8102 ft 318 kts 67°
2026-04-27 00:10 -34.94447 -58.43966 8760 ft 318 kts 67°
2026-04-27 00:10 -34.93428 -58.41557 9353 ft 321 kts 67°
2026-04-27 00:10 -34.92413 -58.39159 9922 ft 324 kts 66°
2026-04-27 00:10 -34.91370 -58.36694 10337 ft 334 kts 66°
2026-04-27 00:11 -34.90285 -58.34128 10589 ft 349 kts 66°
2026-04-27 00:11 -34.89156 -58.31466 11056 ft 356 kts 65°
2026-04-27 00:11 -34.88011 -58.28770 11742 ft 357 kts 65°
2026-04-27 00:11 -34.86881 -58.26110 12411 ft 359 kts 64°
2026-04-27 00:12 -34.85739 -58.23426 13130 ft 362 kts 64°
2026-04-27 00:12 -34.84179 -58.19762 14122 ft 365 kts 64°
2026-04-27 00:12 -34.83412 -58.17964 14588 ft 368 kts 63°
2026-04-27 00:12 -34.82219 -58.15168 15297 ft 374 kts 63°
2026-04-27 00:13 -34.81016 -58.12349 16055 ft 378 kts 63°
2026-04-27 00:13 -34.79793 -58.09487 16630 ft 386 kts 63°
2026-04-27 00:13 -34.78547 -58.06572 17267 ft 393 kts 63°
2026-04-27 00:13 -34.77302 -58.03666 18039 ft 394 kts 63°
2026-04-27 00:14 -34.76032 -58.00701 18699 ft 398 kts 63°
2026-04-27 00:14 -34.74739 -57.97685 19096 ft 410 kts 63°
2026-04-27 00:14 -34.73403 -57.94574 19532 ft 420 kts 62°
2026-04-27 00:14 -34.72045 -57.91411 19927 ft 431 kts 62°
2026-04-27 00:15 -34.70636 -57.88135 20537 ft 435 kts 61°
2026-04-27 00:15 -34.69236 -57.84885 21034 ft 442 kts 60°
2026-04-27 00:15 -34.67786 -57.81523 21319 ft 456 kts 60°
2026-04-27 00:15 -34.66298 -57.78075 21776 ft 463 kts 60°
2026-04-27 00:16 -34.64801 -57.74611 22270 ft 470 kts 59°
2026-04-27 00:16 -34.63269 -57.71068 22730 ft 477 kts 59°
2026-04-27 00:16 -34.61728 -57.67508 23214 ft 484 kts 59°
2026-04-27 00:16 -34.60160 -57.63891 23734 ft 489 kts 59°
2026-04-27 00:17 -34.58574 -57.60235 24318 ft 492 kts 59°
2026-04-27 00:17 -34.56982 -57.56570 24867 ft 496 kts 59°
2026-04-27 00:17 -34.55360 -57.52836 25495 ft 498 kts 59°
2026-04-27 00:17 -34.53750 -57.49136 26137 ft 499 kts 58°
2026-04-27 00:18 -34.52136 -57.45430 26703 ft 502 kts 58°
2026-04-27 00:18 -34.50513 -57.41710 27185 ft 506 kts 58°
2026-04-27 00:18 -34.48859 -57.37922 27731 ft 509 kts 58°
2026-04-27 00:18 -34.47208 -57.34147 28223 ft 512 kts 57°
2026-04-27 00:19 -34.45537 -57.30328 28602 ft 517 kts 57°
2026-04-27 00:19 -34.43838 -57.26451 29009 ft 521 kts 57°
2026-04-27 00:19 -34.42146 -57.22592 29524 ft 522 kts 57°
2026-04-27 00:19 -34.40445 -57.18717 29949 ft 525 kts 56°
2026-04-27 00:20 -34.38723 -57.14798 30350 ft 527 kts 56°
2026-04-27 00:20 -34.36996 -57.10870 30777 ft 530 kts 56°
2026-04-27 00:20 -34.35273 -57.06955 31201 ft 531 kts 56°
2026-04-27 00:20 -34.33538 -57.03015 31648 ft 533 kts 56°
2026-04-27 00:21 -34.31810 -56.99096 32010 ft 536 kts 55°
2026-04-27 00:21 -34.30035 -56.95077 32333 ft 540 kts 56°
2026-04-27 00:21 -34.28272 -56.91086 32670 ft 544 kts 56°
2026-04-27 00:21 -34.26427 -56.87125 33088 ft 540 kts 49°
2026-04-27 00:22 -34.24217 -56.83483 33389 ft 535 kts 41°
2026-04-27 00:22 -34.21828 -56.80024 33700 ft 537 kts 40°
2026-04-27 00:22 -34.19439 -56.76614 34107 ft 537 kts 41°
2026-04-27 00:22 -34.17016 -56.73163 34580 ft 537 kts 41°
2026-04-27 00:23 -34.14598 -56.69723 34974 ft 537 kts 41°
2026-04-27 00:23 -34.12203 -56.66323 35293 ft 540 kts 41°
2026-04-27 00:23 -34.09748 -56.62841 35634 ft 541 kts 41°
2026-04-27 00:23 -34.07304 -56.59377 35965 ft 543 kts 40°
2026-04-27 00:24 -34.04881 -56.55948 36251 ft 545 kts 41°
2026-04-27 00:24 -34.02423 -56.52472 36522 ft 547 kts 41°
2026-04-27 00:24 -33.99932 -56.48954 36731 ft 551 kts 41°
2026-04-27 00:24 -33.97470 -56.45478 37019 ft 552 kts 41°
2026-04-27 00:25 -33.94966 -56.41945 37387 ft 550 kts 41°
2026-04-27 00:25 -33.92489 -56.38453 37762 ft 548 kts 41°
2026-04-27 00:25 -33.90043 -56.35008 38121 ft 546 kts 41°
2026-04-27 00:25 -33.87575 -56.31540 38422 ft 545 kts 40°
2026-04-27 00:26 -33.85097 -56.28081 38586 ft 547 kts 40°
2026-04-27 00:26 -33.82599 -56.24601 38772 ft 549 kts 40°
2026-04-27 00:26 -33.80121 -56.21149 39174 ft 546 kts 40°
2026-04-27 00:26 -33.77656 -56.17709 39480 ft 544 kts 40°
2026-04-27 00:27 -33.75178 -56.14241 39679 ft 545 kts 40°
2026-04-27 00:27 -33.72741 -56.10829 39900 ft 544 kts 40°
2026-04-27 00:27 -33.70285 -56.07396 40095 ft 544 kts 40°
2026-04-27 00:27 -33.67815 -56.03947 40305 ft 544 kts 40°
2026-04-27 00:28 -33.65335 -56.00486 40505 ft 543 kts 40°
2026-04-27 00:28 -33.62902 -55.97097 40671 ft 543 kts 40°
2026-04-27 00:28 -33.60418 -55.93637 40787 ft 544 kts 40°
2026-04-27 00:28 -33.57982 -55.90249 40923 ft 544 kts 40°
2026-04-27 00:29 -33.53021 -55.83360 40923 ft 543 kts 40°
2026-04-27 00:29 -33.48101 -55.76540 40931 ft 543 kts 40°
2026-04-27 00:30 -33.43202 -55.69762 40919 ft 542 kts 40°
2026-04-27 00:30 -33.38255 -55.62933 40935 ft 543 kts 40°
2026-04-27 00:31 -33.33311 -55.56115 40919 ft 542 kts 40°
2026-04-27 00:31 -33.28404 -55.49369 40919 ft 542 kts 40°
2026-04-27 00:32 -33.23463 -55.42584 40925 ft 541 kts 39°
2026-04-27 00:32 -33.18514 -55.35806 40923 ft 542 kts 39°
2026-04-27 00:33 -33.13570 -55.29042 40900 ft 541 kts 39°
2026-04-27 00:33 -33.08619 -55.22273 40898 ft 538 kts 38°
2026-04-27 00:34 -33.03709 -55.15586 40895 ft 540 kts 38°
2026-04-27 00:34 -32.98782 -55.08878 40901 ft 539 kts 38°
2026-04-27 00:35 -32.93862 -55.02195 40908 ft 539 kts 38°
2026-04-27 00:35 -32.88911 -54.95483 40906 ft 539 kts 38°
2026-04-27 00:36 -32.83990 -54.88823 40926 ft 539 kts 38°
2026-04-27 00:36 -32.79034 -54.82128 40933 ft 537 kts 38°
2026-04-27 00:37 -32.74114 -54.75497 40931 ft 539 kts 38°
2026-04-27 00:37 -32.69163 -54.68835 40921 ft 538 kts 38°
2026-04-27 00:38 -32.64216 -54.62186 40914 ft 536 kts 38°
2026-04-27 00:38 -32.61752 -54.58884 41033 ft 538 kts 38°
2026-04-27 00:38 -32.59289 -54.55586 40877 ft 539 kts 37°
2026-04-27 00:39 -32.54334 -54.48953 40986 ft 539 kts 37°
2026-04-27 00:39 -32.49390 -54.42345 40944 ft 536 kts 37°
2026-04-27 00:40 -32.44417 -54.35719 40927 ft 541 kts 37°
2026-04-27 00:40 -32.39436 -54.29083 40885 ft 535 kts 37°
2026-04-27 00:41 -32.34485 -54.22507 40903 ft 538 kts 36°
2026-04-27 00:41 -32.29594 -54.15902 40914 ft 538 kts 37°
2026-04-27 00:42 -32.24655 -54.09199 40919 ft 538 kts 37°
2026-04-27 00:42 -32.19744 -54.02551 40930 ft 539 kts 37°
2026-04-27 00:43 -32.14827 -53.95909 40926 ft 540 kts 37°
2026-04-27 00:43 -32.09889 -53.89250 40920 ft 539 kts 37°
2026-04-27 00:44 -32.04586 -53.83170 40924 ft 515 kts 22°
2026-04-27 00:44 -32.01699 -53.80835 40938 ft 503 kts 19°
2026-04-27 00:44 -31.98788 -53.78589 40930 ft 502 kts 19°
2026-04-27 00:45 -31.92915 -53.74088 40929 ft 504 kts 19°
2026-04-27 00:45 -31.87056 -53.69603 40943 ft 504 kts 19°
2026-04-27 00:46 -31.81153 -53.65092 40941 ft 504 kts 19°
2026-04-27 00:46 -31.75252 -53.60590 40940 ft 505 kts 19°
2026-04-27 00:47 -31.69391 -53.56123 40948 ft 506 kts 19°
2026-04-27 00:47 -31.63474 -53.51620 40945 ft 505 kts 19°
2026-04-27 00:48 -31.57583 -53.47145 40943 ft 505 kts 19°
2026-04-27 00:48 -31.51679 -53.42669 40949 ft 505 kts 19°
2026-04-27 00:49 -31.45787 -53.38206 40957 ft 506 kts 19°
2026-04-27 00:49 -31.39881 -53.33741 40919 ft 505 kts 18°
2026-04-27 00:50 -31.31065 -53.27087 40928 ft 505 kts 18°
2026-04-27 00:51 -31.25148 -53.22628 40922 ft 503 kts 18°
2026-04-27 00:51 -31.19269 -53.18206 40927 ft 503 kts 18°
2026-04-27 00:52 -31.13400 -53.13800 40932 ft 504 kts 18°
2026-04-27 00:52 -31.07507 -53.09380 40914 ft 502 kts 18°
2026-04-27 00:53 -31.01650 -53.04995 40916 ft 503 kts 18°
2026-04-27 00:53 -30.95747 -53.00581 40924 ft 503 kts 18°
2026-04-27 00:54 -30.89866 -52.96189 40906 ft 501 kts 18°
2026-04-27 00:54 -30.84011 -52.91823 40931 ft 501 kts 18°
2026-04-27 00:55 -30.78139 -52.87455 40931 ft 501 kts 18°
2026-04-27 00:55 -30.72278 -52.83100 40940 ft 503 kts 18°
2026-04-27 00:56 -30.66407 -52.78738 40936 ft 500 kts 18°
2026-04-27 00:56 -30.60552 -52.74392 40943 ft 498 kts 18°
2026-04-27 00:57 -30.54717 -52.70072 40955 ft 501 kts 18°
2026-04-27 00:57 -30.48813 -52.65704 40956 ft 501 kts 18°
2026-04-27 00:58 -30.42935 -52.61365 40944 ft 501 kts 18°
2026-04-27 00:58 -30.37095 -52.57058 40945 ft 499 kts 18°
2026-04-27 00:59 -30.31197 -52.52718 40946 ft 499 kts 18°
2026-04-27 00:59 -30.25386 -52.48447 40943 ft 499 kts 18°
2026-04-27 01:00 -30.19497 -52.44128 40936 ft 502 kts 18°
2026-04-27 01:00 -30.13642 -52.39702 40958 ft 502 kts 20°
2026-04-27 01:01 -30.07858 -52.35220 40951 ft 506 kts 20°
2026-04-27 01:01 -30.02037 -52.30717 40915 ft 501 kts 19°
2026-04-27 01:02 -29.96229 -52.26241 40912 ft 500 kts 19°
2026-04-27 01:02 -29.90460 -52.21806 40923 ft 501 kts 19°
2026-04-27 01:03 -29.84660 -52.17355 40931 ft 503 kts 19°
2026-04-27 01:03 -29.78854 -52.12902 40932 ft 500 kts 20°
2026-04-27 01:04 -29.73069 -52.08476 40939 ft 499 kts 19°
2026-04-27 01:04 -29.67340 -52.04098 40939 ft 498 kts 20°
2026-04-27 01:05 -29.61543 -51.99676 40942 ft 500 kts 20°
2026-04-27 01:05 -29.55775 -51.95281 40945 ft 499 kts 20°
2026-04-27 01:06 -29.49975 -51.90868 40943 ft 499 kts 20°
2026-04-27 01:06 -29.44213 -51.86488 40939 ft 497 kts 20°
2026-04-27 01:07 -29.38469 -51.82128 40956 ft 495 kts 20°
2026-04-27 01:07 -29.32757 -51.77802 40959 ft 495 kts 20°
2026-04-27 01:08 -29.26998 -51.73445 40972 ft 496 kts 20°
2026-04-27 01:08 -29.21280 -51.69122 40986 ft 497 kts 20°
2026-04-27 01:09 -29.15479 -51.64740 40991 ft 496 kts 20°
2026-04-27 01:09 -29.09774 -51.60435 40998 ft 494 kts 21°
2026-04-27 01:10 -29.04018 -51.56103 41003 ft 495 kts 21°
2026-04-27 01:10 -28.98305 -51.51809 41000 ft 496 kts 21°
2026-04-27 01:11 -28.92537 -51.47479 41012 ft 495 kts 21°
2026-04-27 01:11 -28.86788 -51.43169 41034 ft 496 kts 21°
2026-04-27 01:12 -28.81036 -51.38862 41033 ft 493 kts 21°
2026-04-27 01:12 -28.75322 -51.34591 41040 ft 496 kts 21°
2026-04-27 01:13 -28.69584 -51.30302 41027 ft 491 kts 21°
2026-04-27 01:13 -28.63867 -51.26042 41028 ft 493 kts 21°
2026-04-27 01:14 -28.58160 -51.21791 41019 ft 491 kts 21°
2026-04-27 01:14 -28.52478 -51.17565 41029 ft 491 kts 21°
2026-04-27 01:15 -28.46714 -51.13286 41027 ft 492 kts 21°
2026-04-27 01:15 -28.41015 -51.09056 41031 ft 487 kts 21°
2026-04-27 01:16 -28.35335 -51.04851 41038 ft 491 kts 21°
2026-04-27 01:16 -28.29662 -51.00652 41041 ft 489 kts 21°
2026-04-27 01:17 -28.23957 -50.96436 41040 ft 487 kts 21°
2026-04-27 01:17 -28.18281 -50.92249 41035 ft 488 kts 21°
2026-04-27 01:18 -28.12591 -50.88057 41041 ft 489 kts 21°
2026-04-27 01:18 -28.06922 -50.83883 41038 ft 488 kts 22°
2026-04-27 01:19 -28.01293 -50.79567 41042 ft 491 kts 25°
2026-04-27 01:19 -27.95801 -50.74995 41042 ft 493 kts 25°
2026-04-27 01:20 -27.90278 -50.70423 41041 ft 493 kts 25°
2026-04-27 01:20 -27.84737 -50.65857 41057 ft 495 kts 25°
2026-04-27 01:21 -27.79205 -50.61308 41051 ft 491 kts 25°
2026-04-27 01:21 -27.73715 -50.56809 41055 ft 494 kts 26°
2026-04-27 01:22 -27.68158 -50.52259 41056 ft 493 kts 26°
2026-04-27 01:22 -27.62654 -50.47760 41054 ft 492 kts 26°
2026-04-27 01:23 -27.57138 -50.43258 41055 ft 490 kts 26°
2026-04-27 01:23 -27.51599 -50.38745 41057 ft 492 kts 26°
2026-04-27 01:24 -27.46064 -50.34242 41048 ft 492 kts 26°
2026-04-27 01:24 -27.40553 -50.29762 41041 ft 491 kts 25°
2026-04-27 01:25 -27.35039 -50.25287 41047 ft 491 kts 25°
2026-04-27 01:25 -27.29560 -50.20847 41046 ft 491 kts 26°
2026-04-27 01:26 -27.24074 -50.16403 41033 ft 487 kts 26°
2026-04-27 01:26 -27.18575 -50.11961 41019 ft 491 kts 26°
2026-04-27 01:27 -27.13053 -50.07502 41012 ft 491 kts 26°
2026-04-27 01:27 -27.07515 -50.03033 41002 ft 488 kts 26°
2026-04-27 01:28 -27.02046 -49.98627 40999 ft 485 kts 26°
2026-04-27 01:28 -26.96541 -49.94201 40994 ft 489 kts 26°
2026-04-27 01:29 -26.91053 -49.89792 40995 ft 488 kts 26°
2026-04-27 01:29 -26.85564 -49.85387 40999 ft 489 kts 26°
2026-04-27 01:30 -26.80072 -49.80984 41013 ft 489 kts 26°
2026-04-27 01:30 -26.74597 -49.76600 41008 ft 488 kts 26°
2026-04-27 01:31 -26.69142 -49.72239 41018 ft 489 kts 26°
2026-04-27 01:31 -26.63652 -49.67854 41033 ft 489 kts 26°
2026-04-27 01:32 -26.58168 -49.63480 41039 ft 489 kts 27°
2026-04-27 01:32 -26.52661 -49.59092 41053 ft 490 kts 27°
2026-04-27 01:33 -26.47145 -49.54703 41057 ft 488 kts 27°
2026-04-27 01:33 -26.41667 -49.50348 41063 ft 489 kts 27°
2026-04-27 01:34 -26.36170 -49.45983 41055 ft 486 kts 27°
2026-04-27 01:34 -26.30658 -49.41615 41062 ft 490 kts 27°
2026-04-27 01:35 -26.25147 -49.37249 41070 ft 487 kts 27°
2026-04-27 01:35 -26.19660 -49.32909 41053 ft 488 kts 27°
2026-04-27 01:36 -26.14128 -49.28539 41057 ft 489 kts 27°
2026-04-27 01:36 -26.08557 -49.24318 41069 ft 482 kts 22°